Baudette, MN

7:41 AM CDT on March 26, 2017 (GMT -0500)
Baudette International

Weather History for KBDE - June, 2013

Change the Weather History Date:

Thursday, June 27, 2013

  Actual Average Record
Temperature  
Mean Temperature 68 °F -  
Max Temperature 79 °F 77 °F 90 °F (1941)
Min Temperature 57 °F 51 °F 20 °F (1970)
Cooling Degree Days 3    
Growing Degree Days 18 (Base 50)    
Moisture  
Dew Point 60 °F    
Average Humidity 78    
Maximum Humidity 97    
Minimum Humidity 48    
Precipitation  
Precipitation 0.02 in - - ()
Sea Level Pressure  
Sea Level Pressure 29.75 in    
Wind  
Wind Speed 8 mph (WNW)    
Max Wind Speed 20 mph    
Max Gust Speed 31 mph    
Visibility 9 miles    
Events Rain    
Averages and records for this station are not official NWS values.
T = Trace of Precipitation, MM = Missing Value Source: NWS Daily Summary

Daily Weather History Graph

Daily Weather History Graph

Search for Another Location

Airport or City:

Trip Planner

Search our weather history database for the weather conditions in past years. The results will help you decide how hot, cold, wet, or windy it might be!

Date:

Astronomy

Jun. 27, 2013 Rise Set
Actual Time 5:17 AM CDT 9:25 PM CDT
Civil Twilight 4:35 AM CDT 10:07 PM CDT
Nautical Twilight 3:35 AM CDT 11:07 PM CDT
Astronomical Twilight 1:53 AM CDT 1:17 AM CDT
Moon 11:52 PM CDT (6/27) 10:46 AM CDT (6/27)
Length of Visible Light 17h 32m
Length of Day
16h 07m
Waning Gibbous, 76% of the Moon is Illuminated
Jun 27
Waning Gibbous
Jun 29
Last Quarter
Jul 8
New
Jul 15
First Quarter
Jul 22
Full

Hourly Weather History & Observations

Time (CDT) Temp. Dew Point Humidity Pressure Visibility Wind Dir Wind Speed Gust Speed Precip Events Conditions
12:53 AM 60.1 °F 57.9 °F 93% 29.74 in 10.0 mi SSW 4.6 mph - N/A   Clear
1:53 AM 59.0 °F 57.9 °F 96% 29.73 in 10.0 mi South 4.6 mph - N/A   Scattered Clouds
2:53 AM 59.0 °F 57.0 °F 93% 29.73 in 10.0 mi Calm Calm - 0.01 in   Clear
3:53 AM 59.0 °F 57.0 °F 93% 29.72 in 10.0 mi SSW 5.8 mph - N/A   Clear
4:53 AM 57.9 °F 57.0 °F 97% 29.72 in 10.0 mi Calm Calm - N/A   Clear
5:53 AM 60.1 °F 57.9 °F 93% 29.72 in 10.0 mi SW 4.6 mph - N/A   Clear
6:53 AM 64.0 °F 59.0 °F 84% 29.72 in 10.0 mi Calm Calm - N/A   Mostly Cloudy
7:53 AM 66.9 °F 60.1 °F 79% 29.73 in 10.0 mi Variable 5.8 mph - N/A   Clear
8:53 AM 70.0 °F 62.1 °F 76% 29.74 in 10.0 mi WNW 6.9 mph - N/A   Clear
9:53 AM 71.1 °F 60.1 °F 68% 29.75 in 10.0 mi NW 11.5 mph 18.4 mph N/A   Clear
10:53 AM 72.0 °F 62.1 °F 71% 29.75 in 10.0 mi WNW 8.1 mph - N/A   Partly Cloudy
11:53 AM 73.9 °F 62.1 °F 66% 29.75 in 10.0 mi West 10.4 mph - N/A   Mostly Cloudy
12:53 PM 73.9 °F 59.0 °F 59% 29.75 in 10.0 mi NW 13.8 mph 23.0 mph N/A   Mostly Cloudy
1:53 PM 77.0 °F 60.1 °F 56% 29.75 in 10.0 mi WNW 11.5 mph 20.7 mph N/A   Scattered Clouds
2:53 PM 77.0 °F 57.9 °F 52% 29.74 in 10.0 mi West 12.7 mph 21.9 mph N/A   Scattered Clouds
3:53 PM 79.0 °F 57.9 °F 48% 29.73 in 10.0 mi West 10.4 mph 24.2 mph N/A   Scattered Clouds
4:53 PM 75.9 °F 57.9 °F 54% 29.73 in 10.0 mi WNW 11.5 mph 23.0 mph 0.01 in   Scattered Clouds
5:53 PM 75.0 °F 60.1 °F 60% 29.73 in 10.0 mi WNW 11.5 mph 19.6 mph 0.00 in   Mostly Cloudy
6:53 PM 68.0 °F 63.0 °F 84% 29.77 in 10.0 mi NW 13.8 mph 20.7 mph 0.00 in   Overcast
7:53 PM 68.0 °F 60.1 °F 76% 29.77 in 10.0 mi NW 13.8 mph 20.7 mph N/A   Mostly Cloudy
8:53 PM 66.9 °F 59.0 °F 76% 29.76 in 10.0 mi NW 19.6 mph 31.1 mph N/A   Overcast
9:53 PM 66.0 °F 59.0 °F 78% 29.77 in 10.0 mi NW 13.8 mph 26.5 mph N/A   Overcast
10:20 PM 66.2 °F 60.8 °F 83% 29.77 in 10.0 mi NW 17.3 mph 21.9 mph N/A   Overcast
10:34 PM 66.2 °F 60.8 °F 83% 29.77 in 10.0 mi NW 16.1 mph 24.2 mph N/A   Overcast
10:53 PM 66.0 °F 59.0 °F 78% 29.77 in 10.0 mi NW 15.0 mph 20.7 mph N/A   Overcast
11:17 PM 64.4 °F 60.8 °F 88% 29.77 in 7.0 mi NW 19.6 mph 31.1 mph 0.00 in Rain Light Rain
11:46 PM 62.6 °F 60.8 °F 94% 29.77 in 3.0 mi NW 15.0 mph 19.6 mph 0.00 in Rain Light Rain
11:53 PM 63.0 °F 61.0 °F 93% 29.77 in 3.0 mi NW 13.8 mph - 0.00 in Rain Rain